When you browse on this site, cookies collect data to enhance your experience and personalize the content and advertising you see.
Visit our Privacy Policy to learn more. By continuing to use the site, you agree to this use of cookies and data.
  • In Hungary
  • List of Countries
  • For 7 days
  • Water Temperature
  • Satellite Maps
  • Weather Map
  • News
  • Weather Widgets
  • user-avatar
    Login

    Hourly Weather Baza

    Today, 11 December, Tuesday

    Time Temperature Precipitation Wind Pressure Humidity
    00:00 +9°C° 0 mm 0 mps 693 mmHg 59%
    01:00 +8°C° 0 mm 0 mps 692 mmHg 61%
    02:00 +8°C° 0 mm 0 mps 692 mmHg 63%
    03:00 +8°C° 0 mm 0 mps 692 mmHg 65%
    04:00 +7°C° 0 mm 0 mps 691 mmHg 68%
    05:00 +7°C° 0 mm 0 mps 691 mmHg 70%
    06:00 +7°C° 0 mm 0 mps 691 mmHg 72%
    07:00 +10°C° 0 mm 1 mps 692 mmHg 64%
    08:00 +12°C° 0 mm 1 mps 692 mmHg 57%
    09:00 +13°C° 0 mm 1 mps 692 mmHg 50%
    10:00 +15°C° 0 mm 1 mps 693 mmHg 46%
    11:00 +16°C° 0 mm 1 mps 693 mmHg 42%
    12:00 +17°C° 0 mm 2 mps 693 mmHg 38%
    13:00 +17°C° 0 mm 2 mps 693 mmHg 39%
    14:00 +17°C° 0 mm 2 mps 692 mmHg 39%
    15:00 +17°C° 0 mm 2 mps 692 mmHg 40%
    16:00 +15°C° 0 mm 2 mps 692 mmHg 48%
    17:00 +13°C° 0 mm 2 mps 691 mmHg 56%
    18:00 +11°C° 0 mm 1 mps 691 mmHg 64%
    19:00 +11°C° 0 mm 1 mps 691 mmHg 65%
    20:00 +11°C° 0 mm 1 mps 691 mmHg 67%
    21:00 +10°C° 0 mm 1 mps 691 mmHg 68%
    22:00 +10°C° 0 mm 1 mps 691 mmHg 70%
    23:00 +9°C° 0 mm 1 mps 691 mmHg 72%

    Tomorrow, 12 December, Wednesday

    Time Temperature Precipitation Wind Pressure Humidity
    00:00 +9°C° 0 mm 1 mps 690 mmHg 74%
    01:00 +9°C° 0 mm 1 mps 690 mmHg 75%
    02:00 +8°C° 0 mm 2 mps 690 mmHg 77%
    03:00 +7°C° 0 mm 2 mps 690 mmHg 78%
    04:00 +7°C° 0 mm 2 mps 690 mmHg 78%
    05:00 +7°C° 0 mm 2 mps 690 mmHg 79%
    06:00 +7°C° 0 mm 2 mps 690 mmHg 80%
    07:00 +8°C° 0 mm 2 mps 690 mmHg 76%
    08:00 +9°C° 0 mm 2 mps 691 mmHg 73%
    09:00 +10°C° 0 mm 2 mps 691 mmHg 70%
    10:00 +12°C° 0 mm 2 mps 691 mmHg 64%
    11:00 +14°C° 0 mm 2 mps 691 mmHg 58%
    12:00 +15°C° 0 mm 2 mps 691 mmHg 52%
    13:00 +15°C° 0 mm 2 mps 691 mmHg 50%
    14:00 +16°C° 0 mm 2 mps 690 mmHg 49%
    15:00 +16°C° 0 mm 2 mps 690 mmHg 48%
    16:00 +14°C° 0 mm 2 mps 689 mmHg 56%
    17:00 +12°C° 0 mm 2 mps 689 mmHg 64%
    18:00 +10°C° 0 mm 2 mps 689 mmHg 73%
    19:00 +9°C° 0 mm 2 mps 689 mmHg 75%
    20:00 +9°C° 0 mm 2 mps 689 mmHg 76%
    21:00 +9°C° 0 mm 2 mps 689 mmHg 78%
    22:00 +9°C° 0 mm 2 mps 689 mmHg 77%
    23:00 +9°C° 0 mm 2 mps 689 mmHg 77%

    Day after tomorrow, 13 December, Thursday

    Time Temperature Precipitation Wind Pressure Humidity
    00:00 +9°C° 0 mm 3 mps 688 mmHg 76%
    01:00 +9°C° 0 mm 2 mps 688 mmHg 74%
    02:00 +9°C° 0 mm 2 mps 687 mmHg 73%
    03:00 +8°C° 0 mm 2 mps 687 mmHg 71%
    04:00 +8°C° 0 mm 2 mps 687 mmHg 69%
    05:00 +8°C° 0 mm 2 mps 686 mmHg 67%
    06:00 +8°C° 0 mm 3 mps 686 mmHg 65%
    07:00 +8°C° 0.1 mm 3 mps 685 mmHg 64%
    08:00 +8°C° 0.1 mm 4 mps 685 mmHg 62%
    09:00 +10°C° 0.1 mm 4 mps 684 mmHg 60%
    10:00 +8°C° 1.4 mm 6 mps 684 mmHg 66%
    11:00 +6°C° 1.4 mm 8 mps 684 mmHg 72%
    12:00 +6°C° 1.4 mm 9 mps 684 mmHg 77%
    13:00 +6°C° 0.1 mm 10 mps 684 mmHg 70%
    14:00 +6°C° 0.1 mm 11 mps 684 mmHg 63%
    15:00 +5°C° 0.1 mm 12 mps 684 mmHg 55%
    16:00 +4°C° 0.2 mm 11 mps 685 mmHg 60%
    17:00 +3°C° 0.2 mm 10 mps 685 mmHg 64%
    18:00 +3°C° 0.2 mm 9 mps 686 mmHg 69%
    19:00 +2°C° 0.1 mm 8 mps 686 mmHg 71%
    20:00 +2°C° 0.1 mm 8 mps 687 mmHg 72%
    21:00 +3°C° 0.1 mm 7 mps 687 mmHg 74%
    22:00 +2°C° 0 mm 7 mps 687 mmHg 75%
    23:00 +2°C° 0 mm 6 mps 687 mmHg 76%

    14 December, Friday

    Time Temperature Precipitation Wind Pressure Humidity
    00:00 +1°C° 0 mm 6 mps 687 mmHg 77%
    01:00 +1°C° 0 mm 6 mps 687 mmHg 78%
    02:00 +1°C° 0 mm 5 mps 687 mmHg 79%
    03:00 +1°C° 0 mm 5 mps 687 mmHg 79%
    04:00 0°C° 0 mm 5 mps 688 mmHg 80%
    05:00 0°C° 0 mm 4 mps 688 mmHg 80%
    06:00 0°C° 0 mm 4 mps 688 mmHg 81%
    07:00 +1°C° 0 mm 4 mps 689 mmHg 77%
    08:00 +3°C° 0 mm 4 mps 690 mmHg 73%
    09:00 +3°C° 0 mm 4 mps 691 mmHg 70%
    10:00 +5°C° 0 mm 4 mps 691 mmHg 64%
    11:00 +6°C° 0 mm 4 mps 691 mmHg 59%
    12:00 +7°C° 0 mm 4 mps 692 mmHg 53%
    13:00 +8°C° 0 mm 3 mps 692 mmHg 52%
    14:00 +8°C° 0 mm 3 mps 692 mmHg 51%
    15:00 +9°C° 0 mm 3 mps 692 mmHg 51%
    16:00 +7°C° 0 mm 3 mps 692 mmHg 56%
    17:00 +6°C° 0 mm 2 mps 692 mmHg 61%
    18:00 +5°C° 0 mm 2 mps 692 mmHg 67%
    19:00 +5°C° 0 mm 2 mps 693 mmHg 66%
    20:00 +5°C° 0 mm 2 mps 693 mmHg 65%
    21:00 +4°C° 0 mm 2 mps 694 mmHg 64%
    22:00 +4°C° 0 mm 2 mps 693 mmHg 64%
    23:00 +4°C° 0 mm 2 mps 693 mmHg 64%

    15 December, Saturday

    Time Temperature Precipitation Wind Pressure Humidity
    00:00 +4°C° 0 mm 2 mps 693 mmHg 64%
    01:00 +4°C° 0 mm 2 mps 693 mmHg 64%
    02:00 +4°C° 0 mm 2 mps 693 mmHg 64%
    03:00 +4°C° 0 mm 2 mps 693 mmHg 65%
    04:00 +4°C° 0 mm 2 mps 693 mmHg 65%
    05:00 +4°C° 0 mm 2 mps 693 mmHg 65%
    06:00 +4°C° 0 mm 2 mps 693 mmHg 65%
    07:00 +5°C° 0 mm 2 mps 694 mmHg 60%
    08:00 +7°C° 0 mm 2 mps 694 mmHg 54%
    09:00 +9°C° 0 mm 2 mps 695 mmHg 49%
    10:00 +11°C° 0 mm 1 mps 695 mmHg 45%
    11:00 +13°C° 0 mm 1 mps 695 mmHg 41%
    12:00 +15°C° 0 mm 1 mps 695 mmHg 37%
    13:00 +15°C° 0 mm 1 mps 695 mmHg 38%
    14:00 +15°C° 0 mm 1 mps 695 mmHg 39%
    15:00 +16°C° 0 mm 1 mps 695 mmHg 41%
    16:00 +14°C° 0 mm 1 mps 694 mmHg 47%
    17:00 +12°C° 0 mm 1 mps 694 mmHg 54%
    18:00 +10°C° 0 mm 1 mps 694 mmHg 61%
    19:00 +10°C° 0 mm 1 mps 694 mmHg 61%
    20:00 +9°C° 0 mm 1 mps 694 mmHg 62%
    21:00 +8°C° 0 mm 0 mps 694 mmHg 62%
    22:00 +8°C° 0 mm 0 mps 694 mmHg 62%
    23:00 +8°C° 0 mm 0 mps 694 mmHg 62%

    16 December, Sunday

    Time Temperature Precipitation Wind Pressure Humidity
    00:00 +8°C° 0 mm 0 mps 694 mmHg 63%
    01:00 +8°C° 0 mm 0 mps 693 mmHg 64%
    02:00 +8°C° 0 mm 0 mps 693 mmHg 66%
    03:00 +7°C° 0 mm 0 mps 693 mmHg 67%
    04:00 +8°C° 0 mm 1 mps 693 mmHg 67%
    05:00 +8°C° 0 mm 1 mps 693 mmHg 68%
    06:00 +8°C° 0 mm 1 mps 692 mmHg 68%
    07:00 +10°C° 0 mm 1 mps 693 mmHg 61%
    08:00 +12°C° 0 mm 1 mps 694 mmHg 55%
    09:00 +13°C° 0 mm 1 mps 694 mmHg 48%
    10:00 +15°C° 0 mm 1 mps 694 mmHg 43%
    11:00 +18°C° 0 mm 1 mps 694 mmHg 37%
    12:00 +19°C° 0 mm 1 mps 694 mmHg 31%
    13:00 +19°C° 0 mm 2 mps 694 mmHg 31%
    14:00 +19°C° 0 mm 2 mps 694 mmHg 32%
    15:00 +19°C° 0 mm 2 mps 694 mmHg 32%
    16:00 +16°C° 0 mm 2 mps 693 mmHg 40%
    17:00 +14°C° 0 mm 1 mps 693 mmHg 47%
    18:00 +12°C° 0 mm 1 mps 693 mmHg 55%
    19:00 +11°C° 0 mm 1 mps 693 mmHg 56%
    20:00 +11°C° 0 mm 1 mps 693 mmHg 58%
    21:00 +11°C° 0 mm 1 mps 693 mmHg 59%
    22:00 +10°C° 0 mm 1 mps 693 mmHg 60%
    23:00 +10°C° 0 mm 1 mps 693 mmHg 61%
    Show more